When you browse on this site, cookies collect data to enhance your experience and personalize the content and advertising you see.
Visit our Privacy Policy to learn more. By continuing to use the site, you agree to this use of cookies and data.
  • en Suisse
  • Liste des pays
  • À 7 jours
  • Température de l'eau
  • Carte météo
  • Widgets météo
  • user-avatar
    Se connecter

    Météo par heure à Krajanka

    Ce jour, 22 Septembre, Dimanche

    Heure Température Précipitation Vent Pression Humidité
    00:00 +12°C° 0 mm 2 m/s 749 mmHg 75%
    01:00 +12°C° 0 mm 2 m/s 749 mmHg 77%
    02:00 +12°C° 0 mm 2 m/s 749 mmHg 75%
    03:00 +10°C° 0 mm 2 m/s 749 mmHg 74%
    04:00 +10°C° 0 mm 2 m/s 748 mmHg 72%
    05:00 +10°C° 0 mm 2 m/s 748 mmHg 70%
    06:00 +12°C° 0 mm 2 m/s 748 mmHg 68%
    07:00 +12°C° 0 mm 2 m/s 748 mmHg 65%
    08:00 +13°C° 0 mm 3 m/s 748 mmHg 58%
    09:00 +16°C° 0 mm 3 m/s 748 mmHg 51%
    10:00 +19°C° 0 mm 3 m/s 748 mmHg 44%
    11:00 +20°C° 0 mm 3 m/s 747 mmHg 42%
    12:00 +21°C° 0 mm 3 m/s 747 mmHg 39%
    13:00 +22°C° 0 mm 3 m/s 747 mmHg 37%
    14:00 +22°C° 0 mm 3 m/s 746 mmHg 39%
    15:00 +21°C° 0 mm 3 m/s 746 mmHg 40%
    16:00 +21°C° 0 mm 3 m/s 746 mmHg 42%
    17:00 +19°C° 0 mm 3 m/s 746 mmHg 46%
    18:00 +18°C° 0 mm 2 m/s 746 mmHg 49%
    19:00 +16°C° 0 mm 2 m/s 746 mmHg 53%
    20:00 +15°C° 0 mm 2 m/s 745 mmHg 54%
    21:00 +15°C° 0 mm 2 m/s 745 mmHg 54%
    22:00 +14°C° 0 mm 2 m/s 745 mmHg 55%
    23:00 +14°C° 0 mm 2 m/s 745 mmHg 57%

    Demain, 23 Septembre, Lundi

    Heure Température Précipitation Vent Pression Humidité
    00:00 +14°C° 0 mm 2 m/s 745 mmHg 60%
    01:00 +13°C° 0 mm 2 m/s 745 mmHg 62%
    02:00 +13°C° 0 mm 2 m/s 745 mmHg 66%
    03:00 +13°C° 0 mm 2 m/s 745 mmHg 70%
    04:00 +12°C° 0 mm 2 m/s 745 mmHg 74%
    05:00 +13°C° 0 mm 2 m/s 745 mmHg 73%
    06:00 +12°C° 0 mm 3 m/s 745 mmHg 73%
    07:00 +13°C° 0 mm 3 m/s 745 mmHg 73%
    08:00 +16°C° 0 mm 3 m/s 745 mmHg 66%
    09:00 +18°C° 0 mm 3 m/s 745 mmHg 59%
    10:00 +20°C° 0 mm 3 m/s 745 mmHg 52%
    11:00 +20°C° 0 mm 3 m/s 745 mmHg 49%
    12:00 +21°C° 0 mm 3 m/s 745 mmHg 46%
    13:00 +22°C° 0 mm 3 m/s 744 mmHg 42%
    14:00 +22°C° 0 mm 3 m/s 744 mmHg 44%
    15:00 +23°C° 0 mm 2 m/s 744 mmHg 45%
    16:00 +21°C° 0 mm 2 m/s 744 mmHg 46%
    17:00 +20°C° 0 mm 2 m/s 744 mmHg 52%
    18:00 +19°C° 0 mm 1 m/s 744 mmHg 57%
    19:00 +16°C° 0 mm 1 m/s 744 mmHg 62%
    20:00 +16°C° 0 mm 1 m/s 744 mmHg 64%
    21:00 +15°C° 0 mm 1 m/s 745 mmHg 65%
    22:00 +15°C° 0 mm 1 m/s 745 mmHg 67%
    23:00 +14°C° 0 mm 1 m/s 745 mmHg 68%

    Après-demain, 24 Septembre, Mardi

    Heure Température Précipitation Vent Pression Humidité
    00:00 +14°C° 0 mm 1 m/s 744 mmHg 70%
    01:00 +13°C° 0 mm 1 m/s 744 mmHg 72%
    02:00 +13°C° 0 mm 1 m/s 744 mmHg 73%
    03:00 +13°C° 0 mm 1 m/s 744 mmHg 75%
    04:00 +13°C° 0 mm 1 m/s 744 mmHg 76%
    05:00 +13°C° 0 mm 1 m/s 744 mmHg 74%
    06:00 +14°C° 0 mm 1 m/s 744 mmHg 72%
    07:00 +14°C° 0 mm 1 m/s 743 mmHg 70%
    08:00 +15°C° 0 mm 1 m/s 743 mmHg 67%
    09:00 +16°C° 0 mm 1 m/s 743 mmHg 64%
    10:00 +19°C° 0 mm 1 m/s 743 mmHg 61%
    11:00 +18°C° 0 mm 2 m/s 743 mmHg 58%
    12:00 +19°C° 0 mm 2 m/s 743 mmHg 56%
    13:00 +20°C° 0 mm 2 m/s 742 mmHg 54%
    14:00 +20°C° 0 mm 2 m/s 742 mmHg 55%
    15:00 +20°C° 0 mm 2 m/s 742 mmHg 56%
    16:00 +21°C° 0 mm 1 m/s 741 mmHg 57%
    17:00 +20°C° 0 mm 1 m/s 741 mmHg 61%
    18:00 +19°C° 0 mm 1 m/s 741 mmHg 66%
    19:00 +16°C° 0 mm 1 m/s 741 mmHg 70%
    20:00 +18°C° 0 mm 1 m/s 741 mmHg 69%
    21:00 +18°C° 0 mm 1 m/s 741 mmHg 69%
    22:00 +18°C° 0 mm 1 m/s 741 mmHg 68%
    23:00 +18°C° 0.1 mm 1 m/s 741 mmHg 71%

    25 Septembre, Mercredi

    Heure Température Précipitation Vent Pression Humidité
    00:00 +16°C° 0.1 mm 2 m/s 740 mmHg 73%
    01:00 +16°C° 0.1 mm 2 m/s 740 mmHg 75%
    02:00 +16°C° 0.1 mm 2 m/s 740 mmHg 78%
    03:00 +15°C° 0.1 mm 2 m/s 740 mmHg 82%
    04:00 +15°C° 0.1 mm 2 m/s 739 mmHg 85%
    05:00 +15°C° 0 mm 2 m/s 739 mmHg 85%
    06:00 +14°C° 0 mm 3 m/s 739 mmHg 85%
    07:00 +14°C° 0 mm 3 m/s 739 mmHg 85%
    08:00 +16°C° 0 mm 3 m/s 739 mmHg 79%
    09:00 +17°C° 0 mm 3 m/s 739 mmHg 73%
    10:00 +18°C° 0 mm 3 m/s 739 mmHg 67%
    11:00 +18°C° 0 mm 4 m/s 739 mmHg 67%
    12:00 +18°C° 0 mm 4 m/s 739 mmHg 66%
    13:00 +17°C° 0 mm 5 m/s 739 mmHg 66%
    14:00 +18°C° 0.1 mm 4 m/s 739 mmHg 67%
    15:00 +18°C° 0.1 mm 4 m/s 739 mmHg 69%
    16:00 +17°C° 0.1 mm 3 m/s 738 mmHg 71%
    17:00 +17°C° 0.4 mm 3 m/s 739 mmHg 75%
    18:00 +15°C° 0.4 mm 4 m/s 739 mmHg 79%
    19:00 +14°C° 0.4 mm 4 m/s 740 mmHg 83%
    20:00 +13°C° 0.1 mm 4 m/s 740 mmHg 86%
    21:00 +13°C° 0.1 mm 4 m/s 740 mmHg 88%
    22:00 +12°C° 0.1 mm 4 m/s 740 mmHg 91%
    23:00 +12°C° 0 mm 4 m/s 740 mmHg 90%

    26 Septembre, Jeudi

    Heure Température Précipitation Vent Pression Humidité
    00:00 +11°C° 0 mm 4 m/s 741 mmHg 89%
    01:00 +11°C° 0 mm 4 m/s 741 mmHg 87%
    02:00 +11°C° 0 mm 4 m/s 741 mmHg 88%
    03:00 +10°C° 0 mm 4 m/s 741 mmHg 88%
    04:00 +10°C° 0 mm 4 m/s 741 mmHg 88%
    05:00 +10°C° 0 mm 4 m/s 742 mmHg 87%
    06:00 +10°C° 0 mm 4 m/s 742 mmHg 86%
    07:00 +11°C° 0 mm 4 m/s 742 mmHg 85%
    08:00 +12°C° 0 mm 4 m/s 742 mmHg 78%
    09:00 +14°C° 0 mm 5 m/s 743 mmHg 71%
    10:00 +16°C° 0 mm 5 m/s 743 mmHg 65%
    11:00 +16°C° 0.1 mm 5 m/s 743 mmHg 65%
    12:00 +16°C° 0.1 mm 6 m/s 743 mmHg 66%
    13:00 +16°C° 0.1 mm 6 m/s 743 mmHg 66%
    14:00 +15°C° 0 mm 5 m/s 743 mmHg 71%
    15:00 +15°C° 0 mm 5 m/s 743 mmHg 75%
    16:00 +14°C° 0 mm 4 m/s 743 mmHg 80%
    17:00 +14°C° 0 mm 3 m/s 743 mmHg 81%
    18:00 +13°C° 0 mm 3 m/s 743 mmHg 82%
    19:00 +14°C° 0 mm 2 m/s 743 mmHg 83%
    20:00 +14°C° 0 mm 2 m/s 744 mmHg 83%
    21:00 +14°C° 0 mm 2 m/s 744 mmHg 83%
    22:00 +13°C° 0 mm 3 m/s 744 mmHg 83%
    23:00 +13°C° 0 mm 3 m/s 744 mmHg 84%

    27 Septembre, Vendredi

    Heure Température Précipitation Vent Pression Humidité
    00:00 +13°C° 0 mm 3 m/s 744 mmHg 85%
    01:00 +13°C° 0 mm 3 m/s 744 mmHg 85%
    02:00 +13°C° 0.1 mm 3 m/s 744 mmHg 88%
    03:00 +13°C° 0.1 mm 3 m/s 744 mmHg 90%
    04:00 +14°C° 0.1 mm 2 m/s 744 mmHg 92%
    05:00 +13°C° 0.1 mm 3 m/s 744 mmHg 91%
    06:00 +13°C° 0.1 mm 3 m/s 744 mmHg 89%
    07:00 +13°C° 0.1 mm 3 m/s 744 mmHg 88%
    08:00 +14°C° 0 mm 3 m/s 744 mmHg 85%
    09:00 +16°C° 0 mm 2 m/s 744 mmHg 82%
    10:00 +17°C° 0 mm 2 m/s 744 mmHg 79%
    11:00 +18°C° 0 mm 2 m/s 744 mmHg 73%
    12:00 +19°C° 0 mm 2 m/s 744 mmHg 67%
    13:00 +21°C° 0 mm 2 m/s 744 mmHg 61%
    14:00 +22°C° 0 mm 1 m/s 744 mmHg 61%
    15:00 +22°C° 0 mm 1 m/s 743 mmHg 61%
    16:00 +22°C° 0 mm 1 m/s 743 mmHg 61%
    17:00 +20°C° 0 mm 2 m/s 743 mmHg 65%
    18:00 +19°C° 0 mm 2 m/s 743 mmHg 68%
    19:00 +18°C° 0 mm 3 m/s 743 mmHg 72%
    20:00 +17°C° 0 mm 3 m/s 743 mmHg 72%
    21:00 +17°C° 0 mm 3 m/s 743 mmHg 72%
    22:00 +17°C° 0 mm 4 m/s 743 mmHg 72%
    23:00 +17°C° 0 mm 4 m/s 742 mmHg 71%
    Voir plus